Location: Chagrin Falls Park
(41.4139°N, 81.3865°W)
Time: 00:09:16
(UTC+00:00)

STARLINK-2715 - Pass Details

Date: 31 July 2021
Orbit: 546 x 549 km, 53.1° (Epoch: 20 September)

Event Time Altitude Azimuth Distance (km) Brightness Sun altitude
Rises 01:32:30 0° 287° (WNW) 2,720 8.8 -8.7°
Drops below altitude 10° 01:33:43 - 278° (W) 2,373 8.1 -8.8°
Maximum altitude 01:37:22 10° 236° (WSW) 1,817 6.6 -9.4°
Sets 01:42:12 0° 186° (S) 2,699 6.9 -10.1°
